Location: Unspecified
(0.0000°N, 0.0000°E)
Time: 06:31:40
(UTC+00:00)

Vanguard 2 - Pass Details

Date: 22 November 2019
Orbit: 553 x 2938 km, 32.9° (Epoch: 10 December)

Event Time Altitude Azimuth Distance (km) Brightness Sun altitude
Rises 06:56:32 0° 272° (W) 6,561 11.7 16.5°
Reaches altitude 10° 07:03:19 10° 288° (WNW) 5,207 11.2 18.1°
Maximum altitude 07:12:12 18° 326° (NW) 3,901 10.8 20.2°
Drops below altitude 10° 07:19:09 10° 6° (N) 3,916 11.0 21.8°
Sets 07:23:15 0° 25° (NNE) 4,474 11.5 22.7°
